When you browse on this site, cookies collect data to enhance your experience and personalize the content and advertising you see.
Visit our Privacy Policy to learn more. By continuing to use the site, you agree to this use of cookies and data.
  • In Romania
  • List of Countries
  • For 7 days
  • Water Temperature
  • Satellite Maps
  • Weather Map
  • Weather Widgets
  • user-avatar
    Login

    Hourly Weather Novki

    Today, 16 January, Wednesday

    Time Temperature Precipitation Wind Pressure Humidity
    00:00 -8°C° 0 mm 2 mps 729 mmHg 93%
    01:00 -9°C° 0 mm 2 mps 729 mmHg 93%
    02:00 -9°C° 0 mm 2 mps 729 mmHg 94%
    03:00 -9°C° 0 mm 2 mps 729 mmHg 94%
    04:00 -9°C° 0 mm 2 mps 729 mmHg 95%
    05:00 -9°C° 0 mm 2 mps 729 mmHg 95%
    06:00 -9°C° 0.1 mm 2 mps 730 mmHg 95%
    07:00 -9°C° 0.1 mm 2 mps 730 mmHg 95%
    08:00 -9°C° 0.1 mm 2 mps 730 mmHg 95%
    09:00 -8°C° 0.1 mm 2 mps 731 mmHg 95%
    10:00 -7°C° 0.1 mm 2 mps 731 mmHg 95%
    11:00 -7°C° 0.1 mm 2 mps 732 mmHg 94%
    12:00 -7°C° 0.1 mm 3 mps 732 mmHg 93%
    13:00 -6°C° 0.1 mm 3 mps 732 mmHg 92%
    14:00 -6°C° 0.1 mm 3 mps 733 mmHg 90%
    15:00 -6°C° 0 mm 3 mps 733 mmHg 91%
    16:00 -7°C° 0 mm 3 mps 734 mmHg 91%
    17:00 -7°C° 0 mm 3 mps 734 mmHg 91%
    18:00 -8°C° 0 mm 3 mps 735 mmHg 91%
    19:00 -8°C° 0 mm 3 mps 735 mmHg 91%
    20:00 -8°C° 0 mm 2 mps 735 mmHg 92%
    21:00 -8°C° 0 mm 2 mps 736 mmHg 93%
    22:00 -8°C° 0 mm 2 mps 736 mmHg 94%
    23:00 -9°C° 0 mm 2 mps 736 mmHg 95%

    Tomorrow, 17 January, Thursday

    Time Temperature Precipitation Wind Pressure Humidity
    00:00 -10°C° 0 mm 3 mps 736 mmHg 96%
    01:00 -10°C° 0 mm 3 mps 736 mmHg 96%
    02:00 -10°C° 0 mm 3 mps 736 mmHg 97%
    03:00 -10°C° 0.1 mm 4 mps 736 mmHg 94%
    04:00 -10°C° 0.1 mm 4 mps 735 mmHg 92%
    05:00 -10°C° 0.1 mm 5 mps 734 mmHg 89%
    06:00 -8°C° 0.5 mm 5 mps 734 mmHg 90%
    07:00 -8°C° 0.5 mm 5 mps 733 mmHg 92%
    08:00 -8°C° 0.5 mm 6 mps 733 mmHg 93%
    09:00 -5°C° 0.5 mm 6 mps 732 mmHg 92%
    10:00 -4°C° 0.5 mm 6 mps 732 mmHg 91%
    11:00 -3°C° 0.5 mm 6 mps 731 mmHg 91%
    12:00 -2°C° 0.5 mm 6 mps 731 mmHg 91%
    13:00 -2°C° 0.5 mm 6 mps 730 mmHg 92%
    14:00 -1°C° 0.5 mm 6 mps 730 mmHg 92%
    15:00 -2°C° 0.7 mm 6 mps 729 mmHg 91%
    16:00 -2°C° 0.7 mm 7 mps 729 mmHg 89%
    17:00 -2°C° 0.7 mm 7 mps 728 mmHg 88%
    18:00 -2°C° 0.4 mm 7 mps 729 mmHg 88%
    19:00 -2°C° 0.4 mm 6 mps 729 mmHg 88%
    20:00 -2°C° 0.4 mm 6 mps 729 mmHg 88%
    21:00 -2°C° 0 mm 6 mps 729 mmHg 87%
    22:00 -2°C° 0 mm 6 mps 729 mmHg 87%
    23:00 -2°C° 0 mm 6 mps 730 mmHg 86%

    Day after tomorrow, 18 January, Friday

    Time Temperature Precipitation Wind Pressure Humidity
    00:00 -2°C° 0.1 mm 7 mps 730 mmHg 86%
    01:00 -2°C° 0.1 mm 7 mps 730 mmHg 85%
    02:00 -2°C° 0.1 mm 7 mps 730 mmHg 85%
    03:00 -2°C° 0.1 mm 6 mps 730 mmHg 85%
    04:00 -2°C° 0.1 mm 6 mps 730 mmHg 86%
    05:00 -2°C° 0.1 mm 6 mps 730 mmHg 86%
    06:00 -2°C° 0.1 mm 6 mps 730 mmHg 87%
    07:00 -1°C° 0.1 mm 5 mps 730 mmHg 87%
    08:00 -1°C° 0.1 mm 5 mps 730 mmHg 87%
    09:00 -1°C° 0.5 mm 5 mps 730 mmHg 89%
    10:00 -1°C° 0.5 mm 5 mps 730 mmHg 91%
    11:00 -1°C° 0.5 mm 4 mps 731 mmHg 93%
    12:00 -1°C° 0.9 mm 4 mps 731 mmHg 92%
    13:00 -2°C° 0.9 mm 5 mps 731 mmHg 90%
    14:00 -2°C° 0.9 mm 5 mps 731 mmHg 89%
    15:00 -3°C° 0.3 mm 4 mps 732 mmHg 90%
    16:00 -4°C° 0.3 mm 4 mps 732 mmHg 92%
    17:00 -5°C° 0.3 mm 3 mps 733 mmHg 93%
    18:00 -6°C° 0.1 mm 3 mps 734 mmHg 91%
    19:00 -8°C° 0.1 mm 4 mps 734 mmHg 90%
    20:00 -9°C° 0.1 mm 4 mps 735 mmHg 89%
    21:00 -10°C° 0 mm 4 mps 736 mmHg 89%
    22:00 -10°C° 0 mm 3 mps 736 mmHg 90%
    23:00 -12°C° 0 mm 3 mps 737 mmHg 90%

    19 January, Saturday

    Time Temperature Precipitation Wind Pressure Humidity
    00:00 -12°C° 0 mm 3 mps 738 mmHg 91%
    01:00 -10°C° 0 mm 3 mps 738 mmHg 92%
    02:00 -11°C° 0 mm 4 mps 739 mmHg 92%
    03:00 -10°C° 0 mm 4 mps 739 mmHg 91%
    04:00 -9°C° 0 mm 4 mps 739 mmHg 89%
    05:00 -8°C° 0 mm 5 mps 740 mmHg 88%
    06:00 -8°C° 0 mm 5 mps 740 mmHg 88%
    07:00 -8°C° 0 mm 5 mps 740 mmHg 88%
    08:00 -8°C° 0 mm 5 mps 741 mmHg 88%
    09:00 -8°C° 0 mm 5 mps 741 mmHg 87%
    10:00 -8°C° 0 mm 5 mps 742 mmHg 87%
    11:00 -8°C° 0 mm 5 mps 742 mmHg 86%
    12:00 -8°C° 0 mm 4 mps 743 mmHg 85%
    13:00 -7°C° 0 mm 4 mps 743 mmHg 84%
    14:00 -7°C° 0 mm 4 mps 743 mmHg 83%
    15:00 -7°C° 0 mm 4 mps 743 mmHg 86%
    16:00 -8°C° 0 mm 4 mps 743 mmHg 88%
    17:00 -8°C° 0 mm 3 mps 743 mmHg 90%
    18:00 -7°C° 0 mm 3 mps 743 mmHg 90%
    19:00 -7°C° 0 mm 3 mps 744 mmHg 90%
    20:00 -7°C° 0 mm 3 mps 744 mmHg 90%
    21:00 -7°C° 0 mm 3 mps 744 mmHg 91%
    22:00 -8°C° 0 mm 3 mps 744 mmHg 92%
    23:00 -9°C° 0 mm 3 mps 744 mmHg 92%

    20 January, Sunday

    Time Temperature Precipitation Wind Pressure Humidity
    00:00 -9°C° 0 mm 3 mps 744 mmHg 93%
    01:00 -9°C° 0 mm 3 mps 744 mmHg 94%
    02:00 -9°C° 0 mm 3 mps 744 mmHg 94%
    03:00 -9°C° 0 mm 3 mps 744 mmHg 94%
    04:00 -8°C° 0 mm 3 mps 743 mmHg 95%
    05:00 -8°C° 0 mm 3 mps 743 mmHg 95%
    06:00 -7°C° 0.1 mm 2 mps 743 mmHg 94%
    07:00 -6°C° 0.1 mm 2 mps 743 mmHg 93%
    08:00 -6°C° 0.1 mm 2 mps 743 mmHg 93%
    09:00 -6°C° 0 mm 2 mps 743 mmHg 92%
    10:00 -7°C° 0 mm 3 mps 744 mmHg 92%
    11:00 -7°C° 0 mm 3 mps 744 mmHg 91%
    12:00 -7°C° 0 mm 3 mps 744 mmHg 92%
    13:00 -7°C° 0 mm 3 mps 744 mmHg 93%
    14:00 -7°C° 0 mm 3 mps 744 mmHg 94%
    15:00 -7°C° 0 mm 2 mps 744 mmHg 95%
    16:00 -7°C° 0 mm 2 mps 744 mmHg 95%
    17:00 -8°C° 0 mm 2 mps 744 mmHg 95%
    18:00 -8°C° 0 mm 2 mps 744 mmHg 95%
    19:00 -9°C° 0 mm 2 mps 744 mmHg 96%
    20:00 -9°C° 0 mm 1 mps 744 mmHg 96%
    21:00 -9°C° 0.1 mm 1 mps 744 mmHg 97%
    22:00 -9°C° 0.1 mm 1 mps 744 mmHg 97%
    23:00 -9°C° 0.1 mm 1 mps 744 mmHg 98%

    21 January, Monday

    Time Temperature Precipitation Wind Pressure Humidity
    00:00 -9°C° 0.2 mm 1 mps 744 mmHg 98%
    01:00 -8°C° 0.2 mm 1 mps 744 mmHg 98%
    02:00 -8°C° 0.2 mm 0 mps 745 mmHg 98%
    03:00 -8°C° 0 mm 1 mps 745 mmHg 98%
    04:00 -9°C° 0 mm 1 mps 745 mmHg 98%
    05:00 -9°C° 0 mm 1 mps 745 mmHg 97%
    06:00 -9°C° 0 mm 1 mps 746 mmHg 97%
    07:00 -10°C° 0 mm 2 mps 746 mmHg 97%
    08:00 -10°C° 0 mm 2 mps 747 mmHg 96%
    09:00 -12°C° 0 mm 2 mps 747 mmHg 95%
    10:00 -12°C° 0 mm 2 mps 748 mmHg 94%
    11:00 -13°C° 0 mm 3 mps 748 mmHg 93%
    12:00 -14°C° 0 mm 3 mps 748 mmHg 93%
    13:00 -14°C° 0 mm 3 mps 749 mmHg 93%
    14:00 -15°C° 0 mm 3 mps 749 mmHg 93%
    15:00 -15°C° 0 mm 2 mps 749 mmHg 94%
    16:00 -16°C° 0 mm 2 mps 750 mmHg 95%
    17:00 -15°C° 0 mm 1 mps 750 mmHg 97%
    18:00 -15°C° 0 mm 1 mps 750 mmHg 97%
    19:00 -16°C° 0 mm 1 mps 751 mmHg 97%
    20:00 -16°C° 0 mm 1 mps 751 mmHg 98%
    21:00 -17°C° 0 mm 1 mps 751 mmHg 98%
    22:00 -17°C° 0 mm 1 mps 752 mmHg 98%
    23:00 -17°C° 0 mm 1 mps 752 mmHg 98%
    Show more